This demonstration page uses our WeatherBlox Daily Observations layout. Learn more.

Left ArrowRight Arrow

39.92423, -83.80882

Hourly Observations for February 18, 2021

Temp ( °F °C ) Dew Point ( °F °C ) Humidity (%) Winds ( mph kmh ) Pressure ( in mb ) Visibility ( mi km ) Precip ( " mm )
12:56 am 00:56 Cloudy with Light Snow 18 -7.8 16 -8.9 92 92 ENE 9 15 30.32 1027 3 4 0.00 0.00
1:12 am 01:12 Cloudy with Light Snow 18 -8 18 -8 100 100 ENE 9 15 30.36 1028 3 5 0.00 0.00
1:29 am 01:29 Cloudy with Light Snow 18 -8 18 -8 100 100 ENE 9 15 30.35 1028 3 4 0.00 0.00
1:56 am 01:56 Cloudy with Light Snow 18 -7.8 17 -8.3 96 96 ENE 7 11 30.33 1027 2 2 0.00 0.00
2:56 am 02:56 Cloudy with Light Snow 18 -7.8 18 -7.8 100 100 ENE 9 15 30.29 1026 2 3 0.00 0.00
3:10 am 03:10 Cloudy with Light Snow 18 -8 18 -8 100 100 NE 7 11 30.34 1027 2 3 0.00 0.00
3:17 am 03:17 Cloudy with Light Snow 18 -8 18 -8 100 100 NE 9 15 30.33 1027 3 4 0.00 0.00
3:56 am 03:56 Cloudy with Light Snow 18 -7.8 17 -8.3 96 96 NE 10 17 30.27 1025 2 3 0.00 0.00
4:23 am 04:23 Cloudy with Light Snow 18 -8 18 -8 100 100 NE 8 13 30.29 1026 3 5 0.00 0.00
4:56 am 04:56 Cloudy with Light Snow 18 -7.8 17 -8.3 96 96 NE 13 20 30.24 1024 4 6 0.00 0.00
5:56 am 05:56 Cloudy with Light Snow 19 -7.2 17 -8.3 92 92 NE 12 19 30.23 1024 4 6 0.00 0.00
6:25 am 06:25 Cloudy with Light Snow 19 -7 18 -8 93 93 NE 9 15 30.27 1025 3 4 0.00 0.00
6:39 am 06:39 Cloudy with Light Snow 19 -7 18 -8 93 93 NE 12 19 30.26 1025 3 4 0.00 0.00
6:56 am 06:56 Cloudy with Light Snow 19 -7.2 18 -7.8 96 96 NNE 10 17 30.24 1024 2 3 0.00 0.00
7:11 am 07:11 Cloudy with Light Snow 19 -7 18 -8 93 93 NE 13 20 30.25 1024 3 5 0.00 0.00
7:56 am 07:56 Cloudy with Light Snow 19 -7.2 18 -7.8 96 96 NE 12 19 30.22 1023 5 8 0.00 0.00
8:56 am 08:56 Cloudy with Light Snow 20 -6.7 18 -7.8 92 92 NE 8 13 30.24 1024 4 6 0.00 0.00
9:14 am 09:14 Cloudy with Light Snow 19 -7 18 -8 93 93 NE 9 15 30.26 1025 3 4 0.00 0.00
9:47 am 09:47 Cloudy with Light Snow 19 -7 18 -8 93 93 NNE 9 15 30.28 1025 3 5 0.00 0.00
9:56 am 09:56 Cloudy with Light Snow 20 -6.7 18 -7.8 92 92 NE 7 11 30.24 1024 3 5 0.00 0.00
10:56 am 10:56 Cloudy with Light Snow 22 -5.6 19 -7.2 89 89 NNE 5 7 30.26 1025 8 13 0.00 0.00
11:40 am 11:40 Cloudy with Light Snow 23 -5 19 -7 86 86 NNE 5 7 30.27 1025 4 6 0.00 0.00
11:54 am 11:54 Cloudy with Light Snow 23 -5 19 -7 86 86 N 3 6 30.29 1026 3 4 0.00 0.00
11:56 am 11:56 Cloudy with Light Snow 23 -5 20 -6.7 88 88 N 3 6 30.26 1025 3 4 0.00 0.00
12:12 pm 12:12 Cloudy with Light Snow 25 -4 19 -7 80 80 NNE 5 7 30.26 1025 4 6 0.00 0.00
12:20 pm 12:20 Cloudy with Light Snow 25 -4 21 -6 86 86 NE 3 6 30.26 1025 5 8 0.00 0.00
12:38 pm 12:38 Cloudy with Light Snow 25 -4 21 -6 86 86 NNE 5 7 30.24 1024 8 13 0.00 0.00
12:56 pm 12:56 Cloudy with Light Snow 26 -3.3 21 -6.1 81 81 N 3 6 30.22 1023 4 6 0.00 0.00
1:07 pm 13:07 Cloudy with Light Snow 25 -4 21 -6 86 86 Calm 30.24 1024 8 13 0.00 0.00
1:56 pm 13:56 Cloudy 26 -3.3 21 -6.1 81 81 Calm 30.21 1023 10 16 0.00 0.00
2:13 pm 14:13 Cloudy 27 -3 21 -6 80 80 Calm 30.23 1024 10 16 0.00 0.00
2:33 pm 14:33 Cloudy with Light Snow 27 -3 21 -6 80 80 N 6 9 30.21 1023 10 16 0.00 0.00
2:56 pm 14:56 Cloudy 27 -2.8 23 -5 85 85 NNW 7 11 30.19 1022 10 16 0.00 0.00
3:56 pm 15:56 Cloudy with Light Snow 26 -3.3 22 -5.6 84 84 NNW 8 13 30.20 1023 8 13 0.00 0.00
4:53 pm 16:53 Cloudy with Light Snow 27 -3 23 -5 86 86 NW 8 13 30.23 1024 2 3 0.00 0.00
4:56 pm 16:56 Cloudy with Light Snow 26 -3.3 23 -5 88 88 NW 8 13 30.21 1023 2 3 0.00 0.00
5:03 pm 17:03 Cloudy with Light Snow 25 -4 23 -5 93 93 NW 7 11 30.24 1024 2 3 0.00 0.00
5:30 pm 17:30 Cloudy with Light Snow 25 -4 23 -5 93 93 NW 9 15 30.24 1024 3 4 0.00 0.00
5:38 pm 17:38 Cloudy with Light Snow 25 -4 23 -5 93 93 NW 7 11 30.24 1024 4 6 0.00 0.00
5:45 pm 17:45 Cloudy with Light Snow 25 -4 23 -5 93 93 NW 7 11 30.24 1024 5 8 0.00 0.00
5:56 pm 17:56 Cloudy with Light Snow 25 -3.9 23 -5 92 92 NW 7 11 30.22 1023 7 11 0.00 0.00
6:20 pm 18:20 Cloudy with Light Snow 25 -4 23 -5 93 93 NW 7 11 30.25 1024 5 8 0.00 0.00
6:51 pm 18:51 Cloudy with Light Snow 25 -4 23 -5 93 93 NNW 9 15 30.26 1025 5 8 0.00 0.00
6:56 pm 18:56 Cloudy with Light Snow 24 -4.4 23 -5 96 96 NW 8 13 30.24 1024 4 6 0.00 0.00
7:07 pm 19:07 Cloudy with Light Snow 25 -4 23 -5 93 93 NW 9 15 30.27 1025 5 8 0.00 0.00
7:26 pm 19:26 Cloudy with Light Snow 25 -4 21 -6 86 86 NW 9 15 30.27 1025 7 11 0.00 0.00
7:56 pm 19:56 Cloudy with Light Snow 24 -4.4 22 -5.6 91 91 NW 9 15 30.24 1024 9 14 0.00 0.00
8:23 pm 20:23 Cloudy with Light Snow 23 -5 21 -6 93 93 NW 9 15 30.27 1025 9 14 0.00 0.00
8:56 pm 20:56 Cloudy with Light Snow 23 -5 22 -5.6 96 96 NW 10 17 30.25 1024 9 14 0.00 0.00
9:56 pm 21:56 Cloudy 23 -5 22 -5.6 96 96 NW 8 13 30.25 1024 9 14 0.00 0.00
10:40 pm 22:40 Cloudy 23 -5 21 -6 93 93 NW 7 11 30.28 1025 9 14 0.00 0.00
10:56 pm 22:56 Cloudy 22 -5.6 21 -6.1 96 96 NW 8 13 30.26 1025 9 14 0.00 0.00
11:56 pm 23:56 Cloudy with Mist and Fog 22 -5.6 21 -6.1 96 96 NW 9 15 30.26 1025 6 10 0.00 0.00

Powered by AerisWeather